Airfield :
LOGIN :

Register | Disclaimer

   EN    FR    IT 

 










Legend :    VFR   Marginal VFR   IFR   Intensive IFR   Very Intensive IFR
Visi :
Ceiling :
>= 8 km
>= 3000ft
5 to 8 km
1000 to 3000 ft
1500m to 5 km
500 to 1000 ft
800 to 1500m
200 to 500 ft
< 800m
< 200 ft
Symbols :   Thunderstorms  Fog  Heavy snow  Heavy precipitations  Wind > 20 kt
SIGMETs :     Misc.  Thunderstorms  Icing  Turbulence  Mountain Waves  Volcanic Ashes






- Airport Elevation : 355 ft
- IATA code : VBS


LIPO - Montichiari - Brescia

CURRENT METAR :
  • 270820Z AUTO 22005KT 180V250 9999 FEW012/// 12/10 Q1007

EXPIRED METARs :
  • 270750Z AUTO 20006KT 9999 BKN012/// 11/10 Q1008
  • 270720Z AUTO 19003KT 9999 FEW015/// 11/10 Q1007
  • 270650Z AUTO 05003KT 020V110 9999 SCT013/// SCT033/// 10/09 Q1007
  • 270620Z AUTO 20003KT 9999 BKN010/// BKN032/// 11/09 Q1006
  • 270550Z AUTO 20007KT 9999 OVC004/// 11/10 Q1006

TAF TAF LIPO
Valid from the 27 at 06:00 until the 28 at 06:00 UTC


270500Z 2706/2806 VRB05KT 7000 SCT020 SCT050



MET'MAP, your aeronautical weather chart ! - Copyright ORBIFLY December 2007 - Disclaimer

ORBIFLY MET'MAP TEAM :

Programming & Development : Alexandra Zaïnal
Concept & original design : Baudouin d'Aumeries
Assistance for programming : Marc-Olivier Méhu
Technical & hardware support : Manuel Goepfert

Contact : metmap@orbifly.com




SOURCES & CREDITS :

   NOAA